H1 CPF 2 NER 2025 8 16 9 228 01 glonass145 H2 2213001 9145 54031 2025 8 16 0 0 0 2025 8 19 23 45 0 900 1 1 0 0 0 1 H9 10 0 60903 0.00000 0 8546066.480 10447025.433 21652582.405 10 0 60903 900.00000 0 5820281.589 10464514.617 22525297.116 10 0 60903 1800.00000 0 3022143.929 10686644.921 22960681.535 10 0 60903 2700.00000 0 220977.401 11114896.396 22950044.330 10 0 60903 3600.00000 0 -2514398.034 11738538.894 22493350.587 10 0 60903 4500.00000 0 -5118288.433 12535029.117 21599241.158 10 0 60903 5400.00000 0 -7530619.529 13470924.330 20284883.161 10 0 60903 6300.00000 0 -9699198.240 14503276.107 18575653.010 10 0 60903 7200.00000 0 -11581647.457 15581446.878 16504656.657 10 0 60903 8100.00000 0 -13146932.851 16649273.742 14112095.118 10 0 60903 9000.00000 0 -14376417.248 17647488.654 11444486.668 10 0 60903 9900.00000 0 -15264397.908 18516292.557 8553760.346 10 0 60903 10800.00000 0 -15818103.962 19197973.851 5496238.476 10 0 60903 11700.00000 0 -16057154.320 19639459.106 2331528.544 10 0 60903 12600.00000 0 -16012499.623 19794686.419 -878652.828 10 0 60903 13500.00000 0 -15724894.109 19626699.157 -4071699.412 10 0 60903 14400.00000 0 -15242963.669 19109369.743 -7185352.899 10 0 60903 15300.00000 0 -14620953.814 18228679.129 -10158932.395 10 0 60903 16200.00000 0 -13916254.994 16983496.812 -12934530.174 10 0 60903 17100.00000 0 -13186812.079 15385827.964 -15458149.013 10 0 60903 18000.00000 0 -12488529.418 13460517.190 -17680757.838 10 0 60903 18900.00000 0 -11872782.534 11244421.766 -19559244.739 10 0 60903 19800.00000 0 -11384142.323 8785089.749 -21057248.873 10 0 60903 20700.00000 0 -11058407.940 6138999.124 -22145855.724 10 0 60903 21600.00000 0 -10921030.783 3369432.345 -22804143.328 10 0 60903 22500.00000 0 -10985994.909 544075.398 -23019570.299 10 0 60903 23400.00000 0 -11255199.563 -2267558.497 -22788199.733 10 0 60903 24300.00000 0 -11718368.178 -4996773.834 -22114756.337 10 0 60903 25200.00000 0 -12353486.058 -7578297.493 -21012517.174 10 0 60903 26100.00000 0 -13127746.958 -9952736.425 -19503039.455 10 0 60903 27000.00000 0 -13998967.747 -12068788.255 -17615731.599 10 0 60903 27900.00000 0 -14917411.146 -13885115.213 -15387276.444 10 0 60903 28800.00000 0 -15827939.816 -15371805.918 -12860918.017 10 0 60903 29700.00000 0 -16672411.628 -16511366.583 -10085625.523 10 0 60903 30600.00000 0 -17392216.096 -17299202.626 -7115150.299 10 0 60903 31500.00000 0 -17930846.278 -17743572.507 -4006993.367 10 0 60903 32400.00000 0 -18236398.976 -17865017.284 -821302.745 10 0 60903 33300.00000 0 -18263899.031 -17695290.795 2380279.053 10 0 60903 34200.00000 0 -17977350.619 -17275835.820 5535795.957 10 0 60903 35100.00000 0 -17351429.612 -16655870.269 8584165.800 10 0 60903 36000.00000 0 -16372745.877 -15890163.486 11466352.210 10 0 60903 36900.00000 0 -15040621.732 -15036595.460 14126499.058 10 0 60903 37800.00000 0 -13367352.754 -14153600.776 16513006.240 10 0 60903 38700.00000 0 -11377938.275 -13297603.992 18579526.551 10 0 60903 39600.00000 0 -9109290.731 -12520553.612 20285864.732 10 0 60903 40500.00000 0 -6608954.447 -11867657.962 21598761.477 10 0 60903 41400.00000 0 -3933384.779 -11375418.056 22492547.139 10 0 60903 42300.00000 0 -1145856.826 -11070040.569 22949652.078 10 0 60903 43200.00000 0 1685911.516 -10966298.386 22960963.076 10 0 60903 44100.00000 0 4492325.220 -11066887.818 22526017.936 10 0 60903 45000.00000 0 7204561.191 -11362310.978 21653033.190 10 0 60903 45900.00000 0 9757191.440 -11831289.877 20358762.997 10 0 60903 46800.00000 0 12090671.559 -12441696.386 18668190.376 10 0 60903 47700.00000 0 14153590.626 -13151960.250 16614055.332 10 0 60903 48600.00000 0 15904588.182 -13912896.780 14236227.757 10 0 60903 49500.00000 0 17313857.489 -14669877.553 11580936.314 10 0 60903 50400.00000 0 18364171.374 -15365252.282 8699867.836 10 0 60903 51300.00000 0 19051387.112 -15940918.724 5649154.770 10 0 60903 52200.00000 0 19384408.973 -16340930.607 2488270.941 10 0 60903 53100.00000 0 19384610.271 -16514031.475 -721141.752 10 0 60903 54000.00000 0 19084740.147 -16416005.244 -3916491.365 10 0 60903 54900.00000 0 18527362.555 -16011741.983 -7035473.183 10 0 60903 55800.00000 0 17762895.185 -15276929.734 -10017300.233 10 0 60903 56700.00000 0 16847333.223 -14199299.406 -12803901.316 10 0 60903 57600.00000 0 15839756.236 -12779369.189 -15341061.772 10 0 60903 58500.00000 0 14799725.481 -11030656.641 -17579483.671 10 0 60903 59400.00000 0 13784683.055 -8979349.531 -19475744.324 10 0 60903 60300.00000 0 12847463.651 -6663449.633 -20993134.530 10 0 60903 61200.00000 0 12034024.158 -4131425.987 -22102360.849 10 0 60903 62100.00000 0 11381486.381 -1440434.612 -22782099.373 10 0 60903 63000.00000 0 10916574.240 1345820.497 -23019391.663 10 0 60903 63900.00000 0 10654509.680 4159495.701 -22809876.781 10 0 60903 64800.00000 0 10598411.832 6931185.358 -22157856.592 10 0 60903 65700.00000 0 10739222.694 9592562.321 -21076194.584 10 0 60903 66600.00000 0 11056160.566 12078972.737 -19586051.479 10 0 60903 67500.00000 0 11517680.569 14331879.019 -17716463.747 10 0 60903 68400.00000 0 12082900.683 16301051.481 -15503773.751 10 0 60903 69300.00000 0 12703432.653 17946419.713 -12990922.832 10 0 60903 70200.00000 0 13325540.539 19239508.898 -10226620.896 10 0 60903 71100.00000 0 13892536.380 20164403.497 -7264408.163 10 0 60903 72000.00000 0 14347312.738 20718199.991 -4161626.635 10 0 60903 72900.00000 0 14634906.334 20910931.375 -978320.390 10 0 60903 73800.00000 0 14704985.682 20764967.711 2223914.942 10 0 60903 74700.00000 0 14514158.739 20313918.450 5383112.158 10 0 60903 75600.00000 0 14028003.896 19601082.790 8438120.032 10 0 60903 76500.00000 0 13222738.948 18677512.781 11329776.387 10 0 60903 77400.00000 0 12086457.439 17599769.886 14002044.769 10 0 60903 78300.00000 0 10619879.493 16427468.340 16403093.466 10 0 60903 79200.00000 0 8836584.017 15220707.454 18486296.632 10 0 60903 80100.00000 0 6762710.576 14037499.825 20211138.485 10 0 60903 81000.00000 0 4436140.939 12931302.659 21544003.283 10 0 60903 81900.00000 0 1905191.835 11948755.372 22458835.752 10 0 60903 82800.00000 0 -773129.286 11127718.361 22937658.748 10 0 60903 83700.00000 0 -3535235.376 10495695.546 22970937.484 10 0 60903 84600.00000 0 -6313352.244 10068707.609 22557782.272 10 0 60903 85500.00000 0 -9038094.519 9850664.251 21705984.589 10 0 60904 0.00000 0 -11641119.024 9833263.064 20431884.462 10 0 60904 900.00000 0 -14057747.081 9996420.556 18760069.459 10 0 60904 1800.00000 0 -16229443.118 10309218.342 16722911.428 10 0 60904 2700.00000 0 -18106050.377 10731325.462 14359946.442 10 0 60904 3600.00000 0 -19647686.090 11214837.357 11717110.575 10 0 60904 4500.00000 0 -20826217.276 11706453.700 8845845.316 10 0 60904 5400.00000 0 -21626254.219 12149902.344 5802090.060 10 0 60904 6300.00000 0 -22045619.314 12488505.614 2645181.837 10 0 60904 7200.00000 0 -22095271.376 12667778.586 -563315.200 10 0 60904 8100.00000 0 -21798688.943 12637947.324 -3760826.263 10 0 60904 9000.00000 0 -21190739.507 12356278.289 -6885002.929 10 0 60904 9900.00000 0 -20316083.789 11789118.304 -9874954.662 10 0 60904 10800.00000 0 -19227184.235 10913556.983 -12672449.079 10 0 60904 11700.00000 0 -17982003.784 9718640.083 -15223056.124 10 0 60904 12600.00000 0 -16641493.993 8206081.702 -17477212.744 10 0 60904 13500.00000 0 -15266980.143 6390445.008 -19391186.864 10 0 60904 14400.00000 0 -13917554.720 4298783.973 -20927921.922 10 0 60904 15300.00000 0 -12647589.638 1969761.554 -22057746.150 10 0 60904 16200.00000 0 -11504471.693 -547718.193 -22758933.886 10 0 60904 17100.00000 0 -10526655.592 -3196306.413 -23018109.436 10 0 60904 18000.00000 0 -9742114.901 -5912358.865 -22830487.246 10 0 60904 18900.00000 0 -9167253.947 -8628348.907 -22199945.407 10 0 60904 19800.00000 0 -8806324.174 -11275444.120 -21138932.581 10 0 60904 20700.00000 0 -8651367.120 -13786140.256 -19668211.488 10 0 60904 21600.00000 0 -8682684.317 -16096844.378 -17816444.899 10 0 60904 22500.00000 0 -8869812.564 -18150301.505 -15619632.786 10 0 60904 23400.00000 0 -9172962.268 -19897765.742 -13120411.781 10 0 60904 24300.00000 0 -9544857.574 -21300827.643 -10367230.431 10 0 60904 25200.00000 0 -9932900.562 -22332823.717 -7413415.786 10 0 60904 26100.00000 0 -10281568.606 -22979771.103 -4316148.810 10 0 60904 27000.00000 0 -10534944.418 -23240790.055 -1135367.664 10 0 60904 27900.00000 0 -10639272.907 -23127997.640 2067380.851 10 0 60904 28800.00000 0 -10545437.807 -22665877.811 5230120.349 10 0 60904 29700.00000 0 -10211254.321 -21890154.555 8291632.540 10 0 60904 30600.00000 0 -9603481.500 -20846215.092 11192631.476 10 0 60904 31500.00000 0 -8699469.503 -19587148.646 13876902.436 10 0 60904 32400.00000 0 -7488371.760 -18171482.109 16292384.175 10 0 60904 33300.00000 0 -5971869.851 -16660706.454 18392174.217 10 0 60904 34200.00000 0 -4164378.894 -15116696.527 20135438.128 10 0 60904 35100.00000 0 -2092722.551 -13599131.307 21488205.419 10 0 60904 36000.00000 0 204711.414 -12163021.953 22424036.594 10 0 60904 36900.00000 0 2679302.568 -10856450.699 22924548.104 10 0 60904 37800.00000 0 5273963.450 -9718615.221 22979784.344 10 0 60904 38700.00000 0 7925268.480 -8778260.645 22588428.531 10 0 60904 39600.00000 0 10565859.555 -8052565.540 21757847.108 10 0 60904 40500.00000 0 13127029.808 -7546529.475 20503965.390 10 0 60904 41400.00000 0 15541378.886 -7252888.809 18850975.288 10 0 60904 42300.00000 0 17745429.360 -7152565.202 16830879.298 10 0 60904 43200.00000 0 19682094.851 -7215628.733 14482878.316 10 0 60904 44100.00000 0 21302895.997 -7402735.405 11852614.131 10 0 60904 45000.00000 0 22569830.473 -7666978.338 8991280.821 10 0 60904 45900.00000 0 23456817.583 -7956073.794 5954622.311 10 0 60904 46800.00000 0 23950655.788 -8214788.427 2801836.097 10 0 60904 47700.00000 0 24051452.256 -8387503.354 -405594.414 10 0 60904 48600.00000 0 23772506.197 -8420804.442 -3605114.754 10 0 60904 49500.00000 0 23139651.309 -8265986.879 -6734336.023 10 0 60904 50400.00000 0 22190085.996 -7881365.776 -9732267.294 10 0 60904 51300.00000 0 20970742.187 -7234293.002 -12540518.020 10 0 60904 52200.00000 0 19536263.241 -6302793.325 -15104445.536 10 0 60904 53100.00000 0 17946678.101 -5076749.613 -17374224.178 10 0 60904 54000.00000 0 16264871.374 -3558586.485 -19305814.668 10 0 60904 54900.00000 0 14553957.201 -1763423.399 -20861814.944 10 0 60904 55800.00000 0 12874668.173 281308.969 -22012176.411 10 0 60904 56700.00000 0 11282869.112 2536772.582 -22734772.780 10 0 60904 57600.00000 0 9827299.462 4954107.774 -23015811.828 10 0 60904 58500.00000 0 8547637.690 7476242.535 -22850083.711 10 0 60904 59400.00000 0 7472966.935 10040049.703 -22241042.647 10 0 60904 60300.00000 0 6620703.899 12578762.360 -21200721.965 10 0 60904 61200.00000 0 5996033.344 15024547.475 -19749485.461 10 0 60904 62100.00000 0 5591869.403 17311131.660 -17915620.911 10 0 60904 63000.00000 0 5389343.029 19376371.219 -15734784.230 10 0 60904 63900.00000 0 5358793.221 21164661.131 -13249305.342 10 0 60904 64800.00000 0 5461218.971 22629084.488 -10507369.110 10 0 60904 65700.00000 0 5650130.033 23733214.618 -7562086.797 10 0 60904 66600.00000 0 5873718.289 24452496.549 -4470475.481 10 0 60904 67500.00000 0 6077258.409 24775151.557 -1292364.369 10 0 60904 68400.00000 0 6205637.098 24702568.100 1910751.731 10 0 60904 69300.00000 0 6205904.926 24249163.605 5076890.430 10 0 60904 70200.00000 0 6029743.803 23441723.064 8144769.496 10 0 60904 71100.00000 0 5635746.515 22318241.987 11054982.212 10 0 60904 72000.00000 0 4991412.428 20926321.610 13751138.407 10 0 60904 72900.00000 0 4074774.988 19321182.549 16180949.889 10 0 60904 73800.00000 0 2875591.649 17563378.895 18297239.871 10 0 60904 74700.00000 0 1396044.783 15716307.186 20058857.309 10 0 60904 75600.00000 0 -349077.815 13843613.212 21431478.659 10 0 60904 76500.00000 0 -2332732.895 12006604.016 22388281.553 10 0 60904 77400.00000 0 -4516490.257 10261772.509 22910476.962 10 0 60904 78300.00000 0 -6851886.392 8658537.670 22987688.919 10 0 60904 79200.00000 0 -9282209.515 7237294.697 22618173.478 10 0 60904 80100.00000 0 -11744643.966 6027856.945 21808871.428 10 0 60904 81000.00000 0 -14172686.530 5048355.344 20575292.280 10 0 60904 81900.00000 0 -16498735.244 4304642.139 18941230.251 10 0 60904 82800.00000 0 -18656743.312 3790224.728 16938316.230 10 0 60904 83700.00000 0 -20584827.265 3486732.972 14605413.116 10 0 60904 84600.00000 0 -22227719.735 3364900.703 11987865.208 10 0 60904 85500.00000 0 -23538963.045 3386020.001 9136615.732 10 0 60905 0.00000 0 -24482750.326 3503806.314 6107209.859 10 0 60905 900.00000 0 -25035335.964 3666594.592 2958701.439 10 0 60905 1800.00000 0 -25185953.835 3819771.755 -247510.064 10 0 60905 2700.00000 0 -24937205.646 3908340.767 -3448893.798 10 0 60905 3600.00000 0 -24304901.555 3879505.302 -6583023.473 10 0 60905 4500.00000 0 -23317360.764 3685163.283 -9588810.612 10 0 60905 5400.00000 0 -22014202.472 3284201.531 -12407709.079 10 0 60905 6300.00000 0 -20444679.537 2644492.568 -14984865.860 10 0 60905 7200.00000 0 -18665626.694 1744507.767 -17270194.566 10 0 60905 8100.00000 0 -16739111.377 574477.860 -19219350.187 10 0 60905 9000.00000 0 -14729887.335 -862948.514 -20794586.137 10 0 60905 9900.00000 0 -12702759.009 -2552575.841 -21965477.446 10 0 60905 10800.00000 0 -10719967.650 -4467067.421 -22709497.106 10 0 60905 11700.00000 0 -8838708.370 -6567868.172 -23012435.752 10 0 60905 12600.00000 0 -7108881.091 -8806605.386 -22868658.134 10 0 60905 13500.00000 0 -5571167.789 -11126908.574 -22281193.066 10 0 60905 14400.00000 0 -4255514.224 -13466572.377 -21261656.648 10 0 60905 15300.00000 0 -3180077.109 -15759972.605 -19830011.583 10 0 60905 16200.00000 0 -2350678.054 -17940635.450 -18014168.281 10 0 60905 17100.00000 0 -1760784.502 -19943853.866 -15849436.123 10 0 60905 18000.00000 0 -1392016.114 -21709243.441 -13377835.803 10 0 60905 18900.00000 0 -1215153.412 -23183132.788 -10647286.021 10 0 60905 19800.00000 0 -1191604.927 -24320690.386 -7710679.884 10 0 60905 20700.00000 0 -1275270.308 -25087700.692 -4624868.336 10 0 60905 21600.00000 0 -1414720.652 -25461916.717 -1449569.532 10 0 60905 22500.00000 0 -1555604.378 -25433933.638 1753775.634 10 0 60905 23400.00000 0 -1643177.641 -25007547.523 4923180.584 10 0 60905 24300.00000 0 -1624853.189 -24199584.427 7997300.874 10 0 60905 25200.00000 0 -1452660.729 -23039206.922 10916610.663 10 0 60905 26100.00000 0 -1085515.435 -21566726.337 13624545.940 10 0 60905 27000.00000 0 -491199.027 -19831969.466 16068593.106 10 0 60905 27900.00000 0 352030.479 -17892266.760 18201302.530 10 0 60905 28800.00000 0 1454269.079 -15810144.635 19981207.883 10 0 60905 29700.00000 0 2813287.885 -13650816.881 21373633.744 10 0 60905 30600.00000 0 4414375.630 -11479578.520 22351375.816 10 0 60905 31500.00000 0 6230711.678 -9359209.774 22895240.290 10 0 60905 32400.00000 0 8224256.680 -7347497.633 22994431.263 10 0 60905 33300.00000 0 10347126.456 -5494977.953 22646777.770 10 0 60905 34200.00000 0 12543394.283 -3842992.290 21858794.790 10 0 60905 35100.00000 0 14751248.543 -2422140.847 20645575.604 10 0 60905 36000.00000 0 16905417.280 -1251196.712 19030516.032 10 0 60905 36900.00000 0 18939759.329 -336527.441 17044874.373 10 0 60905 37800.00000 0 20789913.952 327951.192 14727174.264 10 0 60905 38700.00000 0 22395897.658 760286.995 12122460.976 10 0 60905 39600.00000 0 23704538.419 989489.216 9281425.039 10 0 60905 40500.00000 0 24671643.790 1054055.139 6259410.175 10 0 60905 41400.00000 0 25263810.319 1000088.578 3115325.267 10 0 60905 42300.00000 0 25459796.709 879091.255 -89517.360 10 0 60905 43200.00000 0 25251401.759 745522.423 -3292613.313 10 0 60905 44100.00000 0 24643809.422 654232.278 -6431501.830 10 0 60905 45000.00000 0 23655386.311 657880.205 -9444999.801 10 0 60905 45900.00000 0 22316940.636 804449.485 -12274408.297 10 0 60905 46800.00000 0 20670474.766 1134965.677 -14864666.563 10 0 60905 47700.00000 0 18767485.272 1681516.800 -17165429.861 10 0 60905 48600.00000 0 16666883.410 2465660.058 -19132049.551 10 0 60905 49500.00000 0 14432624.849 3497282.903 -20726436.356 10 0 60905 50400.00000 0 12131149.187 4773966.466 -21917790.492 10 0 60905 51300.00000 0 9828737.179 6280877.816 -22683185.500 10 0 60905 52200.00000 0 7588896.254 7991194.976 -23007995.833 10 0 60905 53100.00000 0 5469882.908 9867046.243 -22886161.460 10 0 60905 54000.00000 0 3522464.085 11860923.864 -22320286.029 10 0 60905 54900.00000 0 1788008.978 13917512.678 -21321568.244 10 0 60905 55800.00000 0 296988.467 15975857.227 -19909569.124 10 0 60905 56700.00000 0 -932057.863 17971777.269 -18111820.690 10 0 60905 57600.00000 0 -1893046.807 19840431.590 -15963284.350 10 0 60905 58500.00000 0 -2592349.368 21518924.161 -13505669.740 10 0 60905 59400.00000 0 -3048263.776 22948845.133 -10786627.217 10 0 60905 60300.00000 0 -3289987.661 24078642.016 -7858829.228 10 0 60905 61200.00000 0 -3356133.894 24865723.377 -4778957.842 10 0 60905 62100.00000 0 -3292853.190 25278208.355 -1606617.229 10 0 60905 63000.00000 0 -3151642.805 25296249.909 1596808.703 10 0 60905 63900.00000 0 -2986933.387 24912876.978 4769332.310 10 0 60905 64800.00000 0 -2853555.305 24134320.636 7849550.030 10 0 60905 65700.00000 0 -2804190.659 22979810.346 10777819.939 10 0 60905 66600.00000 0 -2886917.924 21480848.210 13497407.078 10 0 60905 67500.00000 0 -3142952.373 19679990.495 15955575.166 10 0 60905 68400.00000 0 -3604677.573 17629185.921 18104604.238 10 0 60905 69300.00000 0 -4294051.379 15387738.556 19902714.962 10 0 60905 70200.00000 0 -5221454.526 13019978.619 21314882.031 10 0 60905 71100.00000 0 -6385031.892 10592736.706 22313520.906 10 0 60905 72000.00000 0 -7770556.146 8172725.250 22879034.300 10 0 60905 72900.00000 0 -9351821.988 5823935.163 23000207.237 10 0 60905 73800.00000 0 -11091557.138 3605155.268 22674442.090 10 0 60905 74700.00000 0 -12942814.522 1567717.537 21907827.821 10 0 60905 75600.00000 0 -14850789.777 -246437.921 20715040.662 10 0 60905 76500.00000 0 -16754989.937 -1806297.079 19119076.587 10 0 60905 77400.00000 0 -18591663.792 -3092840.813 17150819.251 10 0 60905 78300.00000 0 -20296392.761 -4099603.084 14848450.416 10 0 60905 79200.00000 0 -21806733.513 -4832694.668 12256713.232 10 0 60905 80100.00000 0 -23064800.688 -5310291.293 9426042.082 10 0 60905 81000.00000 0 -24019679.901 -5561608.006 6411575.819 10 0 60905 81900.00000 0 -24629567.977 -5625403.758 3272074.005 10 0 60905 82800.00000 0 -24863548.604 -5548080.633 68758.282 10 0 60905 83700.00000 0 -24702927.074 -5381459.852 -3135897.135 10 0 60905 84600.00000 0 -24142066.674 -5180330.742 -6279400.572 10 0 60905 85500.00000 0 -23188690.799 -4999878.828 -9300477.620 10 0 60906 0.00000 0 -21863638.084 -4893104.243 -12140279.381 10 0 60906 900.00000 0 -20200080.575 -4908341.899 -14743540.623 10 0 60906 1800.00000 0 -18242240.596 -5086990.217 -17059660.344 10 0 60906 2700.00000 0 -16043659.162 -5461545.513 -19043688.159 10 0 60906 3600.00000 0 -13665091.557 -6054025.923 -20657193.432 10 0 60906 4500.00000 0 -11172118.854 -6874851.407 -21869002.277 10 0 60906 5400.00000 0 -8632576.214 -7922226.691 -22655788.851 10 0 60906 6300.00000 0 -6113905.697 -9182052.429 -23002510.838 10 0 60906 7200.00000 0 -3680543.750 -10628367.494 -22902682.227 10 0 60906 8100.00000 0 -1391451.243 -12224303.000 -22358479.769 10 0 60906 9000.00000 0 702112.678 -13923507.444 -21380682.592 10 0 60906 9900.00000 0 2558482.353 -15671982.898 -19988447.504 10 0 60906 10800.00000 0 4147066.740 -17410255.450 -18208925.371 10 0 60906 11700.00000 0 5449360.938 -19075789.490 -16076726.700 10 0 60906 12600.00000 0 6459448.618 -20605545.607 -13633247.076 10 0 60906 13500.00000 0 7183976.938 -21938576.175 -10925865.515 10 0 60906 14400.00000 0 7641607.203 -23018551.256 -8007030.889 10 0 60906 15300.00000 0 7861965.991 -23796110.333 -4933253.577 10 0 60906 16200.00000 0 7884142.001 -24230942.765 -1764021.121 10 0 60906 17100.00000 0 7754792.373 -24293510.679 1439342.002 10 0 60906 18000.00000 0 7525938.261 -23966342.781 4614849.320 10 0 60906 18900.00000 0 7252542.323 -23244845.247 7701040.170 10 0 60906 19800.00000 0 6989969.647 -22137595.462 10638158.329 10 0 60906 20700.00000 0 6791438.516 -20666105.696 13369299.451 10 0 60906 21600.00000 0 6705567.964 -18864065.455 15841505.905 10 0 60906 22500.00000 0 6774125.108 -16776092.658 18006788.497 10 0 60906 23400.00000 0 7030067.273 -14456044.058 19823055.750 10 0 60906 24300.00000 0 7495961.824 -11964953.464 21254933.082 10 0 60906 25200.00000 0 8182851.281 -9368681.759 22274456.052 10 0 60906 26100.00000 0 9089612.979 -6735374.824 22861623.978 10 0 60906 27000.00000 0 10202842.198 -4132833.643 23004802.627 10 0 60906 27900.00000 0 11497265.997 -1625904.835 22700967.278 10 0 60906 28800.00000 0 12936672.841 726000.480 21955780.208 10 0 60906 29700.00000 0 14475321.376 2871156.525 20783499.712 10 0 60906 30600.00000 0 16059771.343 4767447.586 19206720.834 10 0 60906 31500.00000 0 17631061.353 6383886.914 17255951.308 10 0 60906 32400.00000 0 19127143.021 7701665.843 14969029.560 10 0 60906 33300.00000 0 20485469.442 8714688.738 12390394.965 10 0 60906 34200.00000 0 21645628.662 9429570.976 9570223.918 10 0 60906 35100.00000 0 22551910.218 9865100.129 6563448.366 10 0 60906 36000.00000 0 23155695.109 10051183.523 3428676.327 10 0 60906 36900.00000 0 23417566.639 10027327.572 227036.388 10 0 60906 37800.00000 0 23309051.340 9840714.645 -2979029.894 10 0 60906 38700.00000 0 22813914.951 9543960.743 -6127002.450 10 0 60906 39600.00000 0 21928957.632 9192651.097 -9155518.061 10 0 60906 40500.00000 0 20664274.252 8842760.338 -12005580.724 10 0 60906 41400.00000 0 19042968.731 8548068.653 -14621721.916 10 0 60906 42300.00000 0 17100334.890 8357685.160 -16953086.910 10 0 60906 43200.00000 0 14882539.135 8313784.637 -18954425.379 10 0 60906 44100.00000 0 12444861.295 8449654.088 -20586966.931 10 0 60906 45000.00000 0 9849568.415 8788131.796 -21819164.983 10 0 60906 45900.00000 0 7163511.304 9340504.371 -22627295.520 10 0 60906 46800.00000 0 4455544.641 10105907.456 -22995900.451 10 0 60906 47700.00000 0 1793878.207 11071254.272 -22918068.518 10 0 60906 48600.00000 0 -756531.158 12211693.866 -22395549.988 10 0 60906 49500.00000 0 -3136439.623 13491578.814 -21438704.454 10 0 60906 50400.00000 0 -5294527.957 14865900.981 -20066284.135 10 0 60906 51300.00000 0 -7189274.972 16282134.717 -18305057.930 10 0 60906 52200.00000 0 -8790417.426 17682410.238 -16189284.204 10 0 60906 53100.00000 0 -10079938.265 19005926.463 -13760042.853 10 0 60906 54000.00000 0 -11052544.618 20191502.954 -11064439.577 10 0 60906 54900.00000 0 -11715617.940 21180164.960 -8154697.408 10 0 60906 55800.00000 0 -12088640.388 21917654.313 -5087152.561 10 0 60906 56700.00000 0 -12202122.933 22356762.029 -1921173.313 10 0 60906 57600.00000 0 -12096081.143 22459385.674 1281978.058 10 0 60906 58500.00000 0 -11818123.122 22198225.980 4460319.059 10 0 60906 59400.00000 0 -11421229.923 21558051.727 7552334.765 10 0 60906 60300.00000 0 -10961321.556 20536479.803 10498157.484 10 0 60906 61200.00000 0 -10494710.499 19144237.189 13240716.275 10 0 60906 62100.00000 0 -10075549.244 17404892.697 15726834.869 10 0 60906 63000.00000 0 -9753378.852 15354068.168 17908257.437 10 0 60906 63900.00000 0 -9570881.406 13038160.185 19742582.796 10 0 60906 64800.00000 0 -9561931.041 10512623.547 21194089.324 10 0 60906 65700.00000 0 -9750026.030 7839885.826 22234434.661 10 0 60906 66600.00000 0 -10147168.894 5086977.756 22843216.384 10 0 60906 67500.00000 0 -10753243.043 2322976.171 23008382.277 10 0 60906 68400.00000 0 -11555914.025 -383635.770 22726481.326 10 0 60906 69300.00000 0 -12531061.602 -2967582.304 22002749.411 10 0 60906 70200.00000 0 -13643726.663 -5369274.686 20851026.594 10 0 60906 71100.00000 0 -14849535.203 -7537053.644 19293506.089 10 0 60906 72000.00000 0 -16096541.150 -9429100.960 17360318.195 10 0 60906 72900.00000 0 -17327411.692 -11014939.925 15088955.911 10 0 60906 73800.00000 0 -18481863.594 -12276461.365 12523552.227 10 0 60906 74700.00000 0 -19499247.695 -13208431.732 9714022.498 10 0 60906 75600.00000 0 -20321171.753 -13818461.725 6715088.387 10 0 60906 76500.00000 0 -20894049.586 -14126436.928 3585202.762 10 0 60906 77400.00000 0 -21171467.114 -14163435.101 385397.425 10 0 60906 78300.00000 0 -21116263.448 -13970177.059 -2821922.490 10 0 60906 79200.00000 0 -20702237.299 -13595078.244 -5974212.249 10 0 60906 80100.00000 0 -19915405.071 -13091985.441 -9010023.442 10 0 60906 81000.00000 0 -18754756.479 -12517696.660 -11870216.174 10 0 60906 81900.00000 0 -17232475.215 -11929371.313 -14499122.353 10 0 60906 82800.00000 0 -15373615.401 -11381942.258 -16845636.157 10 0 60906 83700.00000 0 -13215247.851 -10925640.687 -18864209.788 10 0 60906 84600.00000 0 -10805112.751 -10603739.398 -20515735.044 10 0 60906 85500.00000 0 -8199836.122 -10450610.079 -21768293.998 99